Tracking 30703 objects as of 14-Jun-2025
HD Live streaming from Space Station
objects crossing your sky now

COSMOS 1275 DEB

Track COSMOS 1275 DEB now!
10-day predictions


NORAD ID: 12663
Int'l Code: 1981-053T
Perigee: 907.8 km
Apogee: 982.4 km
Inclination: 83.0 °
Period: 103.8 minutes
Semi major axis: 7316 km
RCS: 0.0867 m2 (small)
Launch date: June 4, 1981
Source: Commonwealth of Independent States (former USSR) (CIS)
Launch site: PLESETSK MISSILE AND SPACE COMPLEX (PKMTR)

Note: This is SATELLITE DEBRIS
Your satellite tracking list
Your tracking list is empty




NASA's NSSDC Master Catalog

Two Line Element Set (TLE):
1 12663U 81053T   25164.84532637  .00000860  00000-0  71005-3 0  9991
2 12663  82.9524  78.9814 0050971 131.7803 294.8383 13.87343626208125
Source of the keplerian elements: AFSPC